Location: Mahannah Oil Field
(37.4664°N, 96.6003°W)
Time: 15:11:37
(UTC+00:00)

Vanguard 2 Rocket - Pass Details

Date: 29 January 2021
Orbit: 554 x 3325 km, 32.9° (Epoch: 06 March)

Event Time Altitude Azimuth Distance (km) Brightness Sun altitude
Rises 21:13:55 0° 256° (WSW) 7,128 12.3 24.0°
Reaches altitude 10° 21:19:07 10° 254° (WSW) 5,878 12.1 23.3°
Maximum altitude 21:35:55 70° 176° (S) 2,195 9.4 21.0°
Drops below altitude 10° 21:45:29 10° 94° (E) 3,539 9.6 19.6°
Sets 21:47:50 0° 92° (E) 4,236 9.9 19.3°
